Time,TemperatureF,DewpointF,PressureIn,WindDirection,WindDirectionDegrees,WindSpeedMPH,WindSpeedGustMPH,Humidity,HourlyPrecipIn,Conditions,Clouds,dailyrainin,SoftwareType,DateUTC
2013-09-17 00:00:00,71.6,61.7,30.16,NNE,23,1.0,-999.0,71,0.00,,,0.00,Wunderground v.1.15,2013-09-17 04:00:00,
2013-09-17 00:05:00,71.6,61.7,30.16,NNE,23,1.0,-999.0,71,0.00,,,0.00,Wunderground v.1.15,2013-09-17 04:05:00,
2013-09-17 00:10:00,71.6,61.7,30.16,NNE,23,1.0,-999.0,71,0.00,,,0.00,Wunderground v.1.15,2013-09-17 04:10:00,
2013-09-17 00:15:00,71.6,61.7,30.16,NNE,23,1.0,-999.0,71,0.00,,,0.00,Wunderground v.1.15,2013-09-17 04:15:00,
2013-09-17 00:20:00,71.6,61.7,30.16,NNE,23,1.0,-999.0,71,0.00,,,0.00,Wunderground v.1.15,2013-09-17 04:20:00,
2013-09-17 00:25:00,71.6,61.7,30.16,NNE,23,1.0,-999.0,71,0.00,,,0.00,Wunderground v.1.15,2013-09-17 04:25:00,
2013-09-17 00:30:00,71.6,61.7,30.16,NNE,23,1.0,-999.0,71,0.00,,,0.00,Wunderground v.1.15,2013-09-17 04:30:00,
2013-09-17 00:35:00,71.6,61.7,30.16,NNE,23,1.0,-999.0,71,0.00,,,0.00,Wunderground v.1.15,2013-09-17 04:35:00,
2013-09-17 00:40:00,71.6,61.7,30.16,NNE,23,1.0,-999.0,71,0.00,,,0.00,Wunderground v.1.15,2013-09-17 04:40:00,
2013-09-17 00:45:00,70.9,61.0,30.16,NNE,23,1.0,-999.0,71,0.00,,,0.00,Wunderground v.1.15,2013-09-17 04:45:00,
2013-09-17 00:50:00,70.9,61.0,30.16,NNE,23,1.0,-999.0,71,0.00,,,0.00,Wunderground v.1.15,2013-09-17 04:50:00,
2013-09-17 00:55:00,70.9,61.0,30.16,NNE,23,1.0,-999.0,71,0.00,,,0.00,Wunderground v.1.15,2013-09-17 04:55:00,
2013-09-17 01:00:00,70.9,61.0,30.16,NNE,23,1.0,-999.0,71,0.00,,,0.00,Wunderground v.1.15,2013-09-17 05:00:00,
2013-09-17 01:05:00,70.9,61.0,30.16,NNE,23,1.0,-999.0,71,0.00,,,0.00,Wunderground v.1.15,2013-09-17 05:05:00,
2013-09-17 01:10:00,70.9,61.0,30.16,NNE,23,1.0,-999.0,71,0.00,,,0.00,Wunderground v.1.15,2013-09-17 05:10:00,
2013-09-17 01:15:00,70.2,60.4,30.17,NNE,23,1.0,-999.0,71,0.00,,,0.00,Wunderground v.1.15,2013-09-17 05:15:00,
2013-09-17 01:20:00,70.2,60.4,30.17,NNE,23,1.0,-999.0,71,0.00,,,0.00,Wunderground v.1.15,2013-09-17 05:20:00,
2013-09-17 01:25:00,70.2,60.4,30.17,NNE,23,1.0,-999.0,71,0.00,,,0.00,Wunderground v.1.15,2013-09-17 05:25:00,
2013-09-17 01:30:00,70.2,60.4,30.17,NNE,23,1.0,-999.0,71,0.00,,,0.00,Wunderground v.1.15,2013-09-17 05:30:00,
2013-09-17 01:35:00,70.2,60.4,30.17,NNE,23,1.0,-999.0,71,0.00,,,0.00,Wunderground v.1.15,2013-09-17 05:35:00,
2013-09-17 01:40:00,70.2,60.4,30.17,NNE,23,1.0,-999.0,71,0.00,,,0.00,Wunderground v.1.15,2013-09-17 05:40:00,
2013-09-17 01:45:00,69.5,60.5,30.18,NNW,338,1.0,-999.0,73,0.00,,,0.00,Wunderground v.1.15,2013-09-17 05:45:00,
2013-09-17 01:50:00,69.5,60.5,30.18,NNW,338,1.0,-999.0,73,0.00,,,0.00,Wunderground v.1.15,2013-09-17 05:50:00,
2013-09-17 01:55:00,69.5,60.5,30.18,NNW,338,1.0,-999.0,73,0.00,,,0.00,Wunderground v.1.15,2013-09-17 05:55:00,
2013-09-17 02:00:00,69.5,60.5,30.18,NNW,338,1.0,-999.0,73,0.00,,,0.00,Wunderground v.1.15,2013-09-17 06:00:00,
2013-09-17 02:05:00,69.5,60.5,30.18,NNW,338,1.0,-999.0,73,0.00,,,0.00,Wunderground v.1.15,2013-09-17 06:05:00,
2013-09-17 02:10:00,69.5,60.5,30.18,NNW,338,1.0,-999.0,73,0.00,,,0.00,Wunderground v.1.15,2013-09-17 06:10:00,
2013-09-17 02:15:00,69.0,60.4,30.17,NNE,23,1.0,-999.0,74,0.00,,,0.00,Wunderground v.1.15,2013-09-17 06:15:00,
2013-09-17 02:20:00,69.0,60.4,30.17,NNE,23,1.0,-999.0,74,0.00,,,0.00,Wunderground v.1.15,2013-09-17 06:20:00,
2013-09-17 02:25:00,69.0,60.4,30.17,NNE,23,1.0,-999.0,74,0.00,,,0.00,Wunderground v.1.15,2013-09-17 06:25:00,
2013-09-17 02:30:00,69.0,60.4,30.17,NNE,23,1.0,-999.0,74,0.00,,,0.00,Wunderground v.1.15,2013-09-17 06:30:00,
2013-09-17 02:35:00,69.0,60.4,30.17,NNE,23,1.0,-999.0,74,0.00,,,0.00,Wunderground v.1.15,2013-09-17 06:35:00,
2013-09-17 02:40:00,69.0,60.4,30.17,NNE,23,1.0,-999.0,74,0.00,,,0.00,Wunderground v.1.15,2013-09-17 06:40:00,
2013-09-17 02:45:00,68.6,59.2,30.19,NE,45,1.0,-999.0,72,0.00,,,0.00,Wunderground v.1.15,2013-09-17 06:45:00,
2013-09-17 02:50:00,68.6,59.2,30.19,NE,45,1.0,-999.0,72,0.00,,,0.00,Wunderground v.1.15,2013-09-17 06:50:00,
2013-09-17 02:55:00,68.6,59.2,30.19,NE,45,1.0,-999.0,72,0.00,,,0.00,Wunderground v.1.15,2013-09-17 06:55:00,
2013-09-17 03:00:00,68.6,59.2,30.19,NE,45,1.0,-999.0,72,0.00,,,0.00,Wunderground v.1.15,2013-09-17 07:00:00,
2013-09-17 03:05:00,68.6,59.2,30.19,NE,45,1.0,-999.0,72,0.00,,,0.00,Wunderground v.1.15,2013-09-17 07:05:00,
2013-09-17 03:10:00,68.6,59.2,30.19,NE,45,1.0,-999.0,72,0.00,,,0.00,Wunderground v.1.15,2013-09-17 07:10:00,
2013-09-17 03:15:00,68.3,58.5,30.19,NE,45,1.0,-999.0,71,0.00,,,0.00,Wunderground v.1.15,2013-09-17 07:15:00,
2013-09-17 03:20:00,68.3,58.5,30.19,NE,45,1.0,-999.0,71,0.00,,,0.00,Wunderground v.1.15,2013-09-17 07:20:00,
2013-09-17 03:25:00,68.3,58.5,30.19,NE,45,1.0,-999.0,71,0.00,,,0.00,Wunderground v.1.15,2013-09-17 07:25:00,
2013-09-17 03:30:00,68.3,58.5,30.19,NE,45,1.0,-999.0,71,0.00,,,0.00,Wunderground v.1.15,2013-09-17 07:30:00,
2013-09-17 03:35:00,68.3,58.5,30.19,NE,45,1.0,-999.0,71,0.00,,,0.00,Wunderground v.1.15,2013-09-17 07:35:00,
2013-09-17 03:40:00,68.3,58.5,30.19,NE,45,1.0,-999.0,71,0.00,,,0.00,Wunderground v.1.15,2013-09-17 07:40:00,
2013-09-17 03:45:00,67.7,57.6,30.19,North,0,1.0,-999.0,70,0.00,,,0.00,Wunderground v.1.15,2013-09-17 07:45:00,
2013-09-17 03:50:00,67.7,57.6,30.19,North,0,1.0,-999.0,70,0.00,,,0.00,Wunderground v.1.15,2013-09-17 07:50:00,
2013-09-17 03:55:00,67.7,57.6,30.19,North,0,1.0,-999.0,70,0.00,,,0.00,Wunderground v.1.15,2013-09-17 07:55:00,
2013-09-17 04:00:00,67.7,57.6,30.19,North,0,1.0,-999.0,70,0.00,,,0.00,Wunderground v.1.15,2013-09-17 08:00:00,
2013-09-17 04:05:00,67.7,57.6,30.19,North,0,1.0,-999.0,70,0.00,,,0.00,Wunderground v.1.15,2013-09-17 08:05:00,
2013-09-17 04:10:00,67.7,57.6,30.19,North,0,1.0,-999.0,70,0.00,,,0.00,Wunderground v.1.15,2013-09-17 08:10:00,
2013-09-17 04:15:00,67.4,57.3,30.20,NNE,23,1.0,-999.0,70,0.00,,,0.00,Wunderground v.1.15,2013-09-17 08:15:00,
2013-09-17 04:20:00,67.4,57.3,30.20,NNE,23,1.0,-999.0,70,0.00,,,0.00,Wunderground v.1.15,2013-09-17 08:20:00,
2013-09-17 04:25:00,67.4,57.3,30.20,NNE,23,1.0,-999.0,70,0.00,,,0.00,Wunderground v.1.15,2013-09-17 08:25:00,
2013-09-17 04:30:00,67.4,57.3,30.20,NNE,23,1.0,-999.0,70,0.00,,,0.00,Wunderground v.1.15,2013-09-17 08:30:00,
2013-09-17 04:35:00,67.4,57.3,30.20,NNE,23,1.0,-999.0,70,0.00,,,0.00,Wunderground v.1.15,2013-09-17 08:35:00,
2013-09-17 04:40:00,67.4,57.3,30.20,NNE,23,1.0,-999.0,70,0.00,,,0.00,Wunderground v.1.15,2013-09-17 08:40:00,
2013-09-17 04:45:00,67.0,56.9,30.20,NE,45,1.0,-999.0,70,0.00,,,0.00,Wunderground v.1.15,2013-09-17 08:45:00,
2013-09-17 04:50:00,67.0,56.9,30.20,NE,45,1.0,-999.0,70,0.00,,,0.00,Wunderground v.1.15,2013-09-17 08:50:00,
2013-09-17 04:55:00,67.0,56.9,30.20,NE,45,1.0,-999.0,70,0.00,,,0.00,Wunderground v.1.15,2013-09-17 08:55:00,
2013-09-17 05:00:00,67.0,56.9,30.20,NE,45,1.0,-999.0,70,0.00,,,0.00,Wunderground v.1.15,2013-09-17 09:00:00,
2013-09-17 05:05:00,67.0,56.9,30.20,NE,45,1.0,-999.0,70,0.00,,,0.00,Wunderground v.1.15,2013-09-17 09:05:00,
2013-09-17 05:10:00,67.0,56.9,30.20,NE,45,1.0,-999.0,70,0.00,,,0.00,Wunderground v.1.15,2013-09-17 09:10:00,
2013-09-17 05:15:00,66.3,57.8,30.21,NE,45,1.0,-999.0,74,0.00,,,0.00,Wunderground v.1.15,2013-09-17 09:15:00,
2013-09-17 05:20:00,66.3,57.8,30.21,NE,45,1.0,-999.0,74,0.00,,,0.00,Wunderground v.1.15,2013-09-17 09:20:00,
2013-09-17 05:25:00,66.3,57.8,30.21,NE,45,1.0,-999.0,74,0.00,,,0.00,Wunderground v.1.15,2013-09-17 09:25:00,
2013-09-17 05:30:00,66.3,57.8,30.21,NE,45,1.0,-999.0,74,0.00,,,0.00,Wunderground v.1.15,2013-09-17 09:30:00,
2013-09-17 05:35:00,66.3,57.8,30.21,NE,45,1.0,-999.0,74,0.00,,,0.00,Wunderground v.1.15,2013-09-17 09:35:00,
2013-09-17 05:40:00,66.3,57.8,30.21,NE,45,1.0,-999.0,74,0.00,,,0.00,Wunderground v.1.15,2013-09-17 09:40:00,
2013-09-17 05:45:00,65.8,58.0,30.21,ENE,68,0.0,-999.0,76,0.00,,,0.00,Wunderground v.1.15,2013-09-17 09:45:00,
2013-09-17 05:50:00,65.8,58.0,30.21,ENE,68,0.0,-999.0,76,0.00,,,0.00,Wunderground v.1.15,2013-09-17 09:50:00,
2013-09-17 05:55:00,65.8,58.0,30.21,ENE,68,0.0,-999.0,76,0.00,,,0.00,Wunderground v.1.15,2013-09-17 09:55:00,
2013-09-17 06:00:00,65.8,58.0,30.21,ENE,68,0.0,-999.0,76,0.00,,,0.00,Wunderground v.1.15,2013-09-17 10:00:00,
2013-09-17 06:05:00,65.8,58.0,30.21,ENE,68,0.0,-999.0,76,0.00,,,0.00,Wunderground v.1.15,2013-09-17 10:05:00,
2013-09-17 06:10:00,65.8,58.0,30.21,ENE,68,0.0,-999.0,76,0.00,,,0.00,Wunderground v.1.15,2013-09-17 10:10:00,
2013-09-17 06:15:00,64.9,58.2,30.23,NNE,23,0.0,-999.0,79,0.00,,,0.00,Wunderground v.1.15,2013-09-17 10:15:00,
2013-09-17 06:20:00,64.9,58.2,30.23,NNE,23,0.0,-999.0,79,0.00,,,0.00,Wunderground v.1.15,2013-09-17 10:20:00,
2013-09-17 06:25:00,64.9,58.2,30.23,NNE,23,0.0,-999.0,79,0.00,,,0.00,Wunderground v.1.15,2013-09-17 10:25:00,
2013-09-17 06:30:00,64.9,58.2,30.23,NNE,23,0.0,-999.0,79,0.00,,,0.00,Wunderground v.1.15,2013-09-17 10:30:00,
2013-09-17 06:35:00,64.9,58.2,30.23,NNE,23,0.0,-999.0,79,0.00,,,0.00,Wunderground v.1.15,2013-09-17 10:35:00,
2013-09-17 06:40:00,64.9,58.2,30.23,NNE,23,0.0,-999.0,79,0.00,,,0.00,Wunderground v.1.15,2013-09-17 10:40:00,
2013-09-17 06:45:00,64.1,58.1,30.23,NNE,23,1.0,-999.0,81,0.00,,,0.00,Wunderground v.1.15,2013-09-17 10:45:00,
2013-09-17 06:50:00,64.1,58.1,30.23,NNE,23,1.0,-999.0,81,0.00,,,0.00,Wunderground v.1.15,2013-09-17 10:50:00,
2013-09-17 06:55:00,64.1,58.1,30.23,NNE,23,1.0,-999.0,81,0.00,,,0.00,Wunderground v.1.15,2013-09-17 10:55:00,
2013-09-17 07:00:00,64.1,58.1,30.23,NNE,23,1.0,-999.0,81,0.00,,,0.00,Wunderground v.1.15,2013-09-17 11:00:00,
2013-09-17 07:05:00,64.1,58.1,30.23,NNE,23,1.0,-999.0,81,0.00,,,0.00,Wunderground v.1.15,2013-09-17 11:05:00,
2013-09-17 07:10:00,64.1,58.1,30.23,NNE,23,1.0,-999.0,81,0.00,,,0.00,Wunderground v.1.15,2013-09-17 11:10:00,
2013-09-17 07:15:00,63.5,57.6,30.24,NNE,23,1.0,-999.0,81,0.00,,,0.00,Wunderground v.1.15,2013-09-17 11:15:00,
2013-09-17 07:20:00,63.5,57.6,30.24,NNE,23,1.0,-999.0,81,0.00,,,0.00,Wunderground v.1.15,2013-09-17 11:20:00,
2013-09-17 07:25:00,63.5,57.6,30.24,NNE,23,1.0,-999.0,81,0.00,,,0.00,Wunderground v.1.15,2013-09-17 11:25:00,
2013-09-17 07:30:00,63.5,57.6,30.24,NNE,23,1.0,-999.0,81,0.00,,,0.00,Wunderground v.1.15,2013-09-17 11:30:00,
2013-09-17 07:35:00,63.5,57.6,30.24,NNE,23,1.0,-999.0,81,0.00,,,0.00,Wunderground v.1.15,2013-09-17 11:35:00,
2013-09-17 07:40:00,63.5,57.6,30.24,NNE,23,1.0,-999.0,81,0.00,,,0.00,Wunderground v.1.15,2013-09-17 11:40:00,
2013-09-17 07:45:00,63.0,57.4,30.25,NNW,338,0.0,-999.0,82,0.00,,,0.00,Wunderground v.1.15,2013-09-17 11:45:00,
2013-09-17 07:50:00,63.0,57.4,30.25,NNW,338,0.0,-999.0,82,0.00,,,0.00,Wunderground v.1.15,2013-09-17 11:50:00,
2013-09-17 07:55:00,63.0,57.4,30.25,NNW,338,0.0,-999.0,82,0.00,,,0.00,Wunderground v.1.15,2013-09-17 11:55:00,
2013-09-17 08:00:00,63.0,57.4,30.25,NNW,338,0.0,-999.0,82,0.00,,,0.00,Wunderground v.1.15,2013-09-17 12:00:00,
2013-09-17 08:05:00,63.0,57.4,30.25,NNW,338,0.0,-999.0,82,0.00,,,0.00,Wunderground v.1.15,2013-09-17 12:05:00,
2013-09-17 08:10:00,63.0,57.4,30.25,NNW,338,0.0,-999.0,82,0.00,,,0.00,Wunderground v.1.15,2013-09-17 12:10:00,
2013-09-17 08:15:00,63.2,57.6,30.26,ENE,68,1.0,-999.0,82,0.00,,,0.00,Wunderground v.1.15,2013-09-17 12:15:00,
2013-09-17 08:20:00,63.2,57.6,30.26,ENE,68,1.0,-999.0,82,0.00,,,0.00,Wunderground v.1.15,2013-09-17 12:20:00,
2013-09-17 08:25:00,63.2,57.6,30.26,ENE,68,1.0,-999.0,82,0.00,,,0.00,Wunderground v.1.15,2013-09-17 12:25:00,
2013-09-17 08:30:00,63.2,57.6,30.26,ENE,68,1.0,-999.0,82,0.00,,,0.00,Wunderground v.1.15,2013-09-17 12:30:00,
2013-09-17 08:35:00,63.2,57.6,30.26,ENE,68,1.0,-999.0,82,0.00,,,0.00,Wunderground v.1.15,2013-09-17 12:35:00,
2013-09-17 08:40:00,63.2,57.6,30.26,ENE,68,1.0,-999.0,82,0.00,,,0.00,Wunderground v.1.15,2013-09-17 12:40:00,
2013-09-17 08:45:00,64.2,58.2,30.27,North,0,0.0,-999.0,81,0.00,,,0.00,Wunderground v.1.15,2013-09-17 12:45:00,
2013-09-17 08:50:00,64.2,58.2,30.27,North,0,0.0,-999.0,81,0.00,,,0.00,Wunderground v.1.15,2013-09-17 12:50:00,
2013-09-17 08:55:00,64.2,58.2,30.27,North,0,0.0,-999.0,81,0.00,,,0.00,Wunderground v.1.15,2013-09-17 12:55:00,
2013-09-17 09:00:00,64.2,58.2,30.27,North,0,0.0,-999.0,81,0.00,,,0.00,Wunderground v.1.15,2013-09-17 13:00:00,
2013-09-17 09:05:00,64.2,58.2,30.27,North,0,0.0,-999.0,81,0.00,,,0.00,Wunderground v.1.15,2013-09-17 13:05:00,
2013-09-17 09:10:00,64.2,58.2,30.27,North,0,0.0,-999.0,81,0.00,,,0.00,Wunderground v.1.15,2013-09-17 13:10:00,
2013-09-17 09:15:00,67.1,58.9,30.28,ENE,68,1.0,-999.0,75,0.00,,,0.00,Wunderground v.1.15,2013-09-17 13:15:00,
2013-09-17 09:20:00,67.1,58.9,30.28,ENE,68,1.0,-999.0,75,0.00,,,0.00,Wunderground v.1.15,2013-09-17 13:20:00,
2013-09-17 09:25:00,67.1,58.9,30.28,ENE,68,1.0,-999.0,75,0.00,,,0.00,Wunderground v.1.15,2013-09-17 13:25:00,
2013-09-17 09:30:00,67.1,58.9,30.28,ENE,68,1.0,-999.0,75,0.00,,,0.00,Wunderground v.1.15,2013-09-17 13:30:00,
2013-09-17 09:35:00,67.1,58.9,30.28,ENE,68,1.0,-999.0,75,0.00,,,0.00,Wunderground v.1.15,2013-09-17 13:35:00,
2013-09-17 09:40:00,67.1,58.9,30.28,ENE,68,1.0,-999.0,75,0.00,,,0.00,Wunderground v.1.15,2013-09-17 13:40:00,
2013-09-17 09:45:00,68.4,58.6,30.28,NNE,23,1.0,-999.0,71,0.00,,,0.00,Wunderground v.1.15,2013-09-17 13:45:00,
2013-09-17 09:50:00,68.4,58.6,30.28,NNE,23,1.0,-999.0,71,0.00,,,0.00,Wunderground v.1.15,2013-09-17 13:50:00,
2013-09-17 09:55:00,68.4,58.6,30.28,NNE,23,1.0,-999.0,71,0.00,,,0.00,Wunderground v.1.15,2013-09-17 13:55:00,
2013-09-17 10:00:00,68.4,58.6,30.28,NNE,23,1.0,-999.0,71,0.00,,,0.00,Wunderground v.1.15,2013-09-17 14:00:00,
2013-09-17 10:05:00,68.4,58.6,30.28,NNE,23,1.0,-999.0,71,0.00,,,0.00,Wunderground v.1.15,2013-09-17 14:05:00,
2013-09-17 10:10:00,68.4,58.6,30.28,NNE,23,1.0,-999.0,71,0.00,,,0.00,Wunderground v.1.15,2013-09-17 14:10:00,
2013-09-17 10:15:00,69.9,58.9,30.29,NNE,23,1.0,-999.0,68,0.00,,,0.00,Wunderground v.1.15,2013-09-17 14:15:00,
2013-09-17 10:20:00,69.9,58.9,30.29,NNE,23,1.0,-999.0,68,0.00,,,0.00,Wunderground v.1.15,2013-09-17 14:20:00,
2013-09-17 10:25:00,69.9,58.9,30.29,NNE,23,1.0,-999.0,68,0.00,,,0.00,Wunderground v.1.15,2013-09-17 14:25:00,
2013-09-17 10:30:00,69.9,58.9,30.29,NNE,23,1.0,-999.0,68,0.00,,,0.00,Wunderground v.1.15,2013-09-17 14:30:00,
2013-09-17 10:35:00,69.9,58.9,30.29,NNE,23,1.0,-999.0,68,0.00,,,0.00,Wunderground v.1.15,2013-09-17 14:35:00,
2013-09-17 10:40:00,69.9,58.9,30.29,NNE,23,1.0,-999.0,68,0.00,,,0.00,Wunderground v.1.15,2013-09-17 14:40:00,
2013-09-17 10:45:00,70.7,58.4,30.29,ENE,68,1.0,-999.0,65,0.00,,,0.00,Wunderground v.1.15,2013-09-17 14:45:00,
2013-09-17 10:50:00,70.7,58.4,30.29,ENE,68,1.0,-999.0,65,0.00,,,0.00,Wunderground v.1.15,2013-09-17 14:50:00,
2013-09-17 10:55:00,70.7,58.4,30.29,ENE,68,1.0,-999.0,65,0.00,,,0.00,Wunderground v.1.15,2013-09-17 14:55:00,
2013-09-17 11:00:00,70.7,58.4,30.29,ENE,68,1.0,-999.0,65,0.00,,,0.00,Wunderground v.1.15,2013-09-17 15:00:00,
2013-09-17 11:05:00,70.7,58.4,30.29,ENE,68,1.0,-999.0,65,0.00,,,0.00,Wunderground v.1.15,2013-09-17 15:05:00,
2013-09-17 11:10:00,70.7,58.4,30.29,ENE,68,1.0,-999.0,65,0.00,,,0.00,Wunderground v.1.15,2013-09-17 15:10:00,
2013-09-17 11:15:00,71.8,58.5,30.29,NE,45,1.0,-999.0,63,0.00,,,0.00,Wunderground v.1.15,2013-09-17 15:15:00,
2013-09-17 11:20:00,71.8,58.5,30.29,NE,45,1.0,-999.0,63,0.00,,,0.00,Wunderground v.1.15,2013-09-17 15:20:00,
2013-09-17 11:25:00,71.8,58.5,30.29,NE,45,1.0,-999.0,63,0.00,,,0.00,Wunderground v.1.15,2013-09-17 15:25:00,
2013-09-17 11:30:00,71.8,58.5,30.29,NE,45,1.0,-999.0,63,0.00,,,0.00,Wunderground v.1.15,2013-09-17 15:30:00,
2013-09-17 11:35:00,71.8,58.5,30.29,NE,45,1.0,-999.0,63,0.00,,,0.00,Wunderground v.1.15,2013-09-17 15:35:00,
2013-09-17 11:40:00,71.8,58.5,30.29,NE,45,1.0,-999.0,63,0.00,,,0.00,Wunderground v.1.15,2013-09-17 15:40:00,
2013-09-17 11:45:00,73.4,58.7,30.29,NNE,23,1.0,-999.0,60,0.00,,,0.00,Wunderground v.1.15,2013-09-17 15:45:00,
2013-09-17 11:50:00,73.4,58.7,30.29,NNE,23,1.0,-999.0,60,0.00,,,0.00,Wunderground v.1.15,2013-09-17 15:50:00,
2013-09-17 11:55:00,73.4,58.7,30.29,NNE,23,1.0,-999.0,60,0.00,,,0.00,Wunderground v.1.15,2013-09-17 15:55:00,
2013-09-17 12:00:00,73.4,58.7,30.29,NNE,23,1.0,-999.0,60,0.00,,,0.00,Wunderground v.1.15,2013-09-17 16:00:00,
2013-09-17 12:05:00,73.4,58.7,30.29,NNE,23,1.0,-999.0,60,0.00,,,0.00,Wunderground v.1.15,2013-09-17 16:05:00,
2013-09-17 12:10:00,73.4,58.7,30.29,NNE,23,1.0,-999.0,60,0.00,,,0.00,Wunderground v.1.15,2013-09-17 16:10:00,
2013-09-17 12:15:00,75.8,56.9,30.28,NE,45,1.0,-999.0,52,0.00,,,0.00,Wunderground v.1.15,2013-09-17 16:15:00,
2013-09-17 12:20:00,75.8,56.9,30.28,NE,45,1.0,-999.0,52,0.00,,,0.00,Wunderground v.1.15,2013-09-17 16:20:00,
2013-09-17 12:25:00,75.8,56.9,30.28,NE,45,1.0,-999.0,52,0.00,,,0.00,Wunderground v.1.15,2013-09-17 16:25:00,
2013-09-17 12:30:00,75.8,56.9,30.28,NE,45,1.0,-999.0,52,0.00,,,0.00,Wunderground v.1.15,2013-09-17 16:30:00,
2013-09-17 12:35:00,75.8,56.9,30.28,NE,45,1.0,-999.0,52,0.00,,,0.00,Wunderground v.1.15,2013-09-17 16:35:00,
2013-09-17 12:40:00,75.8,56.9,30.28,NE,45,1.0,-999.0,52,0.00,,,0.00,Wunderground v.1.15,2013-09-17 16:40:00,
2013-09-17 12:45:00,75.4,56.0,30.27,ENE,68,1.0,-999.0,51,0.00,,,0.00,Wunderground v.1.15,2013-09-17 16:45:00,
2013-09-17 12:50:00,75.4,56.0,30.27,ENE,68,1.0,-999.0,51,0.00,,,0.00,Wunderground v.1.15,2013-09-17 16:50:00,
2013-09-17 12:55:00,75.4,56.0,30.27,ENE,68,1.0,-999.0,51,0.00,,,0.00,Wunderground v.1.15,2013-09-17 16:55:00,
2013-09-17 13:00:00,75.4,56.0,30.27,ENE,68,1.0,-999.0,51,0.00,,,0.00,Wunderground v.1.15,2013-09-17 17:00:00,
2013-09-17 13:05:00,75.4,56.0,30.27,ENE,68,1.0,-999.0,51,0.00,,,0.00,Wunderground v.1.15,2013-09-17 17:05:00,
2013-09-17 13:10:00,75.4,56.0,30.27,ENE,68,1.0,-999.0,51,0.00,,,0.00,Wunderground v.1.15,2013-09-17 17:10:00,
2013-09-17 13:15:00,75.3,56.5,30.27,NNE,23,2.0,-999.0,52,0.00,,,0.00,Wunderground v.1.15,2013-09-17 17:15:00,
2013-09-17 13:20:00,75.3,56.5,30.27,NNE,23,2.0,-999.0,52,0.00,,,0.00,Wunderground v.1.15,2013-09-17 17:20:00,
2013-09-17 13:25:00,75.3,56.5,30.27,NNE,23,2.0,-999.0,52,0.00,,,0.00,Wunderground v.1.15,2013-09-17 17:25:00,
2013-09-17 13:30:00,75.3,56.5,30.27,NNE,23,2.0,-999.0,52,0.00,,,0.00,Wunderground v.1.15,2013-09-17 17:30:00,
2013-09-17 13:35:00,75.3,56.5,30.27,NNE,23,2.0,-999.0,52,0.00,,,0.00,Wunderground v.1.15,2013-09-17 17:35:00,
2013-09-17 13:40:00,75.3,56.5,30.27,NNE,23,2.0,-999.0,52,0.00,,,0.00,Wunderground v.1.15,2013-09-17 17:40:00,
2013-09-17 13:45:00,76.4,58.5,30.25,NNE,23,1.0,-999.0,54,0.00,,,0.00,Wunderground v.1.15,2013-09-17 17:45:00,
2013-09-17 13:50:00,76.4,58.5,30.25,NNE,23,1.0,-999.0,54,0.00,,,0.00,Wunderground v.1.15,2013-09-17 17:50:00,
2013-09-17 13:55:00,76.4,58.5,30.25,NNE,23,1.0,-999.0,54,0.00,,,0.00,Wunderground v.1.15,2013-09-17 17:55:00,
2013-09-17 14:00:00,76.4,58.5,30.25,NNE,23,1.0,-999.0,54,0.00,,,0.00,Wunderground v.1.15,2013-09-17 18:00:00,
2013-09-17 14:05:00,76.4,58.5,30.25,NNE,23,1.0,-999.0,54,0.00,,,0.00,Wunderground v.1.15,2013-09-17 18:05:00,
2013-09-17 14:10:00,76.4,58.5,30.25,NNE,23,1.0,-999.0,54,0.00,,,0.00,Wunderground v.1.15,2013-09-17 18:10:00,
2013-09-17 14:15:00,75.6,56.7,30.25,NE,45,1.0,-999.0,52,0.00,,,0.00,Wunderground v.1.15,2013-09-17 18:15:00,
2013-09-17 14:20:00,75.6,56.7,30.25,NE,45,1.0,-999.0,52,0.00,,,0.00,Wunderground v.1.15,2013-09-17 18:20:00,
2013-09-17 14:25:00,75.6,56.7,30.25,NE,45,1.0,-999.0,52,0.00,,,0.00,Wunderground v.1.15,2013-09-17 18:25:00,
2013-09-17 14:30:00,75.6,56.7,30.25,NE,45,1.0,-999.0,52,0.00,,,0.00,Wunderground v.1.15,2013-09-17 18:30:00,
2013-09-17 14:35:00,75.6,56.7,30.25,NE,45,1.0,-999.0,52,0.00,,,0.00,Wunderground v.1.15,2013-09-17 18:35:00,
2013-09-17 14:40:00,75.6,56.7,30.25,NE,45,1.0,-999.0,52,0.00,,,0.00,Wunderground v.1.15,2013-09-17 18:40:00,
2013-09-17 14:45:00,75.0,57.2,30.24,NNE,23,1.0,-999.0,54,0.00,,,0.00,Wunderground v.1.15,2013-09-17 18:45:00,
2013-09-17 14:50:00,75.0,57.2,30.24,NNE,23,1.0,-999.0,54,0.00,,,0.00,Wunderground v.1.15,2013-09-17 18:50:00,
2013-09-17 14:55:00,75.0,57.2,30.24,NNE,23,1.0,-999.0,54,0.00,,,0.00,Wunderground v.1.15,2013-09-17 18:55:00,
2013-09-17 15:00:00,75.0,57.2,30.24,NNE,23,1.0,-999.0,54,0.00,,,0.00,Wunderground v.1.15,2013-09-17 19:00:00,
2013-09-17 15:05:00,75.0,57.2,30.24,NNE,23,1.0,-999.0,54,0.00,,,0.00,Wunderground v.1.15,2013-09-17 19:05:00,
2013-09-17 15:10:00,75.0,57.2,30.24,NNE,23,1.0,-999.0,54,0.00,,,0.00,Wunderground v.1.15,2013-09-17 19:10:00,
2013-09-17 15:15:00,74.6,57.4,30.24,NNE,23,0.0,-999.0,55,0.00,,,0.00,Wunderground v.1.15,2013-09-17 19:15:00,
2013-09-17 15:20:00,74.6,57.4,30.24,NNE,23,0.0,-999.0,55,0.00,,,0.00,Wunderground v.1.15,2013-09-17 19:20:00,
2013-09-17 15:25:00,74.6,57.4,30.24,NNE,23,0.0,-999.0,55,0.00,,,0.00,Wunderground v.1.15,2013-09-17 19:25:00,
2013-09-17 15:30:00,74.6,57.4,30.24,NNE,23,0.0,-999.0,55,0.00,,,0.00,Wunderground v.1.15,2013-09-17 19:30:00,
2013-09-17 15:35:00,74.6,57.4,30.24,NNE,23,0.0,-999.0,55,0.00,,,0.00,Wunderground v.1.15,2013-09-17 19:35:00,
2013-09-17 15:40:00,74.6,57.4,30.24,NNE,23,0.0,-999.0,55,0.00,,,0.00,Wunderground v.1.15,2013-09-17 19:40:00,
2013-09-17 15:45:00,74.6,57.4,30.23,ENE,68,0.0,-999.0,55,0.00,,,0.00,Wunderground v.1.15,2013-09-17 19:45:00,
2013-09-17 15:50:00,74.6,57.4,30.23,ENE,68,0.0,-999.0,55,0.00,,,0.00,Wunderground v.1.15,2013-09-17 19:50:00,
2013-09-17 15:55:00,74.6,57.4,30.23,ENE,68,0.0,-999.0,55,0.00,,,0.00,Wunderground v.1.15,2013-09-17 19:55:00,
2013-09-17 16:00:00,74.6,57.4,30.23,ENE,68,0.0,-999.0,55,0.00,,,0.00,Wunderground v.1.15,2013-09-17 20:00:00,
2013-09-17 16:05:00,74.6,57.4,30.23,ENE,68,0.0,-999.0,55,0.00,,,0.00,Wunderground v.1.15,2013-09-17 20:05:00,
2013-09-17 16:10:00,74.6,57.4,30.23,ENE,68,0.0,-999.0,55,0.00,,,0.00,Wunderground v.1.15,2013-09-17 20:10:00,
2013-09-17 16:15:00,74.7,56.9,30.22,NNE,23,1.0,-999.0,54,0.00,,,0.00,Wunderground v.1.15,2013-09-17 20:15:00,
2013-09-17 16:20:00,74.7,56.9,30.22,NNE,23,1.0,-999.0,54,0.00,,,0.00,Wunderground v.1.15,2013-09-17 20:20:00,
2013-09-17 16:25:00,74.7,56.9,30.22,NNE,23,1.0,-999.0,54,0.00,,,0.00,Wunderground v.1.15,2013-09-17 20:25:00,
2013-09-17 16:30:00,74.7,56.9,30.22,NNE,23,1.0,-999.0,54,0.00,,,0.00,Wunderground v.1.15,2013-09-17 20:30:00,
2013-09-17 16:35:00,74.7,56.9,30.22,NNE,23,1.0,-999.0,54,0.00,,,0.00,Wunderground v.1.15,2013-09-17 20:35:00,
2013-09-17 16:40:00,74.7,56.9,30.22,NNE,23,1.0,-999.0,54,0.00,,,0.00,Wunderground v.1.15,2013-09-17 20:40:00,
2013-09-17 16:45:00,75.5,56.6,30.21,NNE,23,1.0,-999.0,52,0.00,,,0.00,Wunderground v.1.15,2013-09-17 20:45:00,
2013-09-17 16:50:00,75.5,56.6,30.21,NNE,23,1.0,-999.0,52,0.00,,,0.00,Wunderground v.1.15,2013-09-17 20:50:00,
2013-09-17 16:55:00,75.5,56.6,30.21,NNE,23,1.0,-999.0,52,0.00,,,0.00,Wunderground v.1.15,2013-09-17 20:55:00,
2013-09-17 17:00:00,75.5,56.6,30.21,NNE,23,1.0,-999.0,52,0.00,,,0.00,Wunderground v.1.15,2013-09-17 21:00:00,
2013-09-17 17:05:00,75.5,56.6,30.21,NNE,23,1.0,-999.0,52,0.00,,,0.00,Wunderground v.1.15,2013-09-17 21:05:00,
2013-09-17 17:10:00,75.5,56.6,30.21,NNE,23,1.0,-999.0,52,0.00,,,0.00,Wunderground v.1.15,2013-09-17 21:10:00,
2013-09-17 17:15:00,76.3,57.4,30.22,NNE,23,1.0,-999.0,52,0.00,,,0.00,Wunderground v.1.15,2013-09-17 21:15:00,
2013-09-17 17:20:00,76.3,57.4,30.22,NNE,23,1.0,-999.0,52,0.00,,,0.00,Wunderground v.1.15,2013-09-17 21:20:00,
2013-09-17 17:25:00,76.3,57.4,30.22,NNE,23,1.0,-999.0,52,0.00,,,0.00,Wunderground v.1.15,2013-09-17 21:25:00,
2013-09-17 17:30:00,76.3,57.4,30.22,NNE,23,1.0,-999.0,52,0.00,,,0.00,Wunderground v.1.15,2013-09-17 21:30:00,
2013-09-17 17:35:00,76.3,57.4,30.22,NNE,23,1.0,-999.0,52,0.00,,,0.00,Wunderground v.1.15,2013-09-17 21:35:00,
2013-09-17 17:40:00,76.3,57.4,30.22,NNE,23,1.0,-999.0,52,0.00,,,0.00,Wunderground v.1.15,2013-09-17 21:40:00,
2013-09-17 17:45:00,75.2,56.9,30.21,ENE,68,0.0,-999.0,53,0.00,,,0.00,Wunderground v.1.15,2013-09-17 21:45:00,
2013-09-17 17:50:00,75.2,56.9,30.21,ENE,68,0.0,-999.0,53,0.00,,,0.00,Wunderground v.1.15,2013-09-17 21:50:00,
2013-09-17 17:55:00,75.2,56.9,30.21,ENE,68,0.0,-999.0,53,0.00,,,0.00,Wunderground v.1.15,2013-09-17 21:55:00,
2013-09-17 18:00:00,75.2,56.9,30.21,ENE,68,0.0,-999.0,53,0.00,,,0.00,Wunderground v.1.15,2013-09-17 22:00:00,
2013-09-17 18:05:00,75.2,56.9,30.21,ENE,68,0.0,-999.0,53,0.00,,,0.00,Wunderground v.1.15,2013-09-17 22:05:00,
2013-09-17 18:10:00,75.2,56.9,30.21,ENE,68,0.0,-999.0,53,0.00,,,0.00,Wunderground v.1.15,2013-09-17 22:10:00,
2013-09-17 18:15:00,74.0,56.8,30.21,NNE,23,0.0,-999.0,55,0.00,,,0.00,Wunderground v.1.15,2013-09-17 22:15:00,
2013-09-17 18:20:00,74.0,56.8,30.21,NNE,23,0.0,-999.0,55,0.00,,,0.00,Wunderground v.1.15,2013-09-17 22:20:00,
2013-09-17 18:25:00,74.0,56.8,30.21,NNE,23,0.0,-999.0,55,0.00,,,0.00,Wunderground v.1.15,2013-09-17 22:25:00,
2013-09-17 18:30:00,74.0,56.8,30.21,NNE,23,0.0,-999.0,55,0.00,,,0.00,Wunderground v.1.15,2013-09-17 22:30:00,
2013-09-17 18:35:00,74.0,56.8,30.21,NNE,23,0.0,-999.0,55,0.00,,,0.00,Wunderground v.1.15,2013-09-17 22:35:00,
2013-09-17 18:40:00,74.0,56.8,30.21,NNE,23,0.0,-999.0,55,0.00,,,0.00,Wunderground v.1.15,2013-09-17 22:40:00,
2013-09-17 18:45:00,71.8,57.6,30.20,NNE,23,0.0,-999.0,61,0.00,,,0.00,Wunderground v.1.15,2013-09-17 22:45:00,
2013-09-17 18:50:00,71.8,57.6,30.20,NNE,23,0.0,-999.0,61,0.00,,,0.00,Wunderground v.1.15,2013-09-17 22:50:00,
2013-09-17 18:55:00,71.8,57.6,30.20,NNE,23,0.0,-999.0,61,0.00,,,0.00,Wunderground v.1.15,2013-09-17 22:55:00,
2013-09-17 19:00:00,71.8,57.6,30.20,NNE,23,0.0,-999.0,61,0.00,,,0.00,Wunderground v.1.15,2013-09-17 23:00:00,
2013-09-17 19:05:00,71.8,57.6,30.20,NNE,23,0.0,-999.0,61,0.00,,,0.00,Wunderground v.1.15,2013-09-17 23:05:00,
2013-09-17 19:10:00,71.8,57.6,30.20,NNE,23,0.0,-999.0,61,0.00,,,0.00,Wunderground v.1.15,2013-09-17 23:10:00,
2013-09-17 19:15:00,69.4,57.1,30.21,North,0,0.0,-999.0,65,0.00,,,0.00,Wunderground v.1.15,2013-09-17 23:15:00,
2013-09-17 19:20:00,69.4,57.1,30.21,North,0,0.0,-999.0,65,0.00,,,0.00,Wunderground v.1.15,2013-09-17 23:20:00,
2013-09-17 19:25:00,69.4,57.1,30.21,North,0,0.0,-999.0,65,0.00,,,0.00,Wunderground v.1.15,2013-09-17 23:25:00,
2013-09-17 19:30:00,69.4,57.1,30.21,North,0,0.0,-999.0,65,0.00,,,0.00,Wunderground v.1.15,2013-09-17 23:30:00,
2013-09-17 19:35:00,69.4,57.1,30.21,North,0,0.0,-999.0,65,0.00,,,0.00,Wunderground v.1.15,2013-09-17 23:35:00,
2013-09-17 19:40:00,69.4,57.1,30.21,North,0,0.0,-999.0,65,0.00,,,0.00,Wunderground v.1.15,2013-09-17 23:40:00,
2013-09-17 19:45:00,67.7,57.2,30.21,North,0,0.0,-999.0,69,0.00,,,0.00,Wunderground v.1.15,2013-09-17 23:45:00,
2013-09-17 19:50:00,67.7,57.2,30.21,North,0,0.0,-999.0,69,0.00,,,0.00,Wunderground v.1.15,2013-09-17 23:50:00,
2013-09-17 19:55:00,67.7,57.2,30.21,North,0,0.0,-999.0,69,0.00,,,0.00,Wunderground v.1.15,2013-09-17 23:55:00,
2013-09-17 20:00:00,67.7,57.2,30.21,North,0,0.0,-999.0,69,0.00,,,0.00,Wunderground v.1.15,2013-09-18 00:00:00,
2013-09-17 20:05:00,67.7,57.2,30.21,North,0,0.0,-999.0,69,0.00,,,0.00,Wunderground v.1.15,2013-09-18 00:05:00,
2013-09-17 20:10:00,67.7,57.2,30.21,North,0,0.0,-999.0,69,0.00,,,0.00,Wunderground v.1.15,2013-09-18 00:10:00,
2013-09-17 20:15:00,66.7,57.4,30.22,NE,45,0.0,-999.0,72,0.00,,,0.00,Wunderground v.1.15,2013-09-18 00:15:00,
2013-09-17 20:20:00,66.7,57.4,30.22,NE,45,0.0,-999.0,72,0.00,,,0.00,Wunderground v.1.15,2013-09-18 00:20:00,
2013-09-17 20:25:00,66.7,57.4,30.22,NE,45,0.0,-999.0,72,0.00,,,0.00,Wunderground v.1.15,2013-09-18 00:25:00,
2013-09-17 20:30:00,66.7,57.4,30.22,NE,45,0.0,-999.0,72,0.00,,,0.00,Wunderground v.1.15,2013-09-18 00:30:00,
2013-09-17 20:35:00,66.7,57.4,30.22,NE,45,0.0,-999.0,72,0.00,,,0.00,Wunderground v.1.15,2013-09-18 00:35:00,
2013-09-17 20:40:00,66.7,57.4,30.22,NE,45,0.0,-999.0,72,0.00,,,0.00,Wunderground v.1.15,2013-09-18 00:40:00,
2013-09-17 20:45:00,66.6,57.7,30.23,NNE,23,0.0,-999.0,73,0.00,,,0.00,Wunderground v.1.15,2013-09-18 00:45:00,
2013-09-17 20:50:00,66.6,57.7,30.23,NNE,23,0.0,-999.0,73,0.00,,,0.00,Wunderground v.1.15,2013-09-18 00:50:00,
2013-09-17 20:55:00,66.6,57.7,30.23,NNE,23,0.0,-999.0,73,0.00,,,0.00,Wunderground v.1.15,2013-09-18 00:55:00,
2013-09-17 21:00:00,66.6,57.7,30.23,NNE,23,0.0,-999.0,73,0.00,,,0.00,Wunderground v.1.15,2013-09-18 01:00:00,
2013-09-17 21:05:00,66.6,57.7,30.23,NNE,23,0.0,-999.0,73,0.00,,,0.00,Wunderground v.1.15,2013-09-18 01:05:00,
2013-09-17 21:10:00,66.6,57.7,30.23,NNE,23,0.0,-999.0,73,0.00,,,0.00,Wunderground v.1.15,2013-09-18 01:10:00,
2013-09-17 21:15:00,66.5,57.2,30.24,NNW,338,0.0,-999.0,72,0.00,,,0.00,Wunderground v.1.15,2013-09-18 01:15:00,
2013-09-17 21:20:00,66.5,57.2,30.24,NNW,338,0.0,-999.0,72,0.00,,,0.00,Wunderground v.1.15,2013-09-18 01:20:00,
2013-09-17 21:25:00,66.5,57.2,30.24,NNW,338,0.0,-999.0,72,0.00,,,0.00,Wunderground v.1.15,2013-09-18 01:25:00,
2013-09-17 21:30:00,66.5,57.2,30.24,NNW,338,0.0,-999.0,72,0.00,,,0.00,Wunderground v.1.15,2013-09-18 01:30:00,
2013-09-17 21:35:00,66.5,57.2,30.24,NNW,338,0.0,-999.0,72,0.00,,,0.00,Wunderground v.1.15,2013-09-18 01:35:00,
2013-09-17 21:40:00,66.5,57.2,30.24,NNW,338,0.0,-999.0,72,0.00,,,0.00,Wunderground v.1.15,2013-09-18 01:40:00,
2013-09-17 21:45:00,66.4,57.5,30.25,NE,45,0.0,-999.0,73,0.00,,,0.00,Wunderground v.1.15,2013-09-18 01:45:00,
2013-09-17 21:50:00,66.4,57.5,30.25,NE,45,0.0,-999.0,73,0.00,,,0.00,Wunderground v.1.15,2013-09-18 01:50:00,
2013-09-17 21:55:00,66.4,57.5,30.25,NE,45,0.0,-999.0,73,0.00,,,0.00,Wunderground v.1.15,2013-09-18 01:55:00,
2013-09-17 22:00:00,66.4,57.5,30.25,NE,45,0.0,-999.0,73,0.00,,,0.00,Wunderground v.1.15,2013-09-18 02:00:00,
2013-09-17 22:05:00,66.4,57.5,30.25,NE,45,0.0,-999.0,73,0.00,,,0.00,Wunderground v.1.15,2013-09-18 02:05:00,
2013-09-17 22:10:00,66.4,57.5,30.25,NE,45,0.0,-999.0,73,0.00,,,0.00,Wunderground v.1.15,2013-09-18 02:10:00,
2013-09-17 22:15:00,66.2,57.3,30.25,NNE,23,0.0,-999.0,73,0.00,,,0.00,Wunderground v.1.15,2013-09-18 02:15:00,
2013-09-17 22:20:00,66.2,57.3,30.25,NNE,23,0.0,-999.0,73,0.00,,,0.00,Wunderground v.1.15,2013-09-18 02:20:00,
2013-09-17 22:25:00,66.2,57.3,30.25,NNE,23,0.0,-999.0,73,0.00,,,0.00,Wunderground v.1.15,2013-09-18 02:25:00,
2013-09-17 22:30:00,66.2,57.3,30.25,NNE,23,0.0,-999.0,73,0.00,,,0.00,Wunderground v.1.15,2013-09-18 02:30:00,
2013-09-17 22:35:00,66.2,57.3,30.25,NNE,23,0.0,-999.0,73,0.00,,,0.00,Wunderground v.1.15,2013-09-18 02:35:00,
2013-09-17 22:40:00,66.2,57.3,30.25,NNE,23,0.0,-999.0,73,0.00,,,0.00,Wunderground v.1.15,2013-09-18 02:40:00,
2013-09-17 22:45:00,66.1,57.2,30.25,ENE,68,0.0,-999.0,73,0.00,,,0.00,Wunderground v.1.15,2013-09-18 02:45:00,
2013-09-17 22:50:00,66.1,57.2,30.25,ENE,68,0.0,-999.0,73,0.00,,,0.00,Wunderground v.1.15,2013-09-18 02:50:00,
2013-09-17 22:55:00,66.1,57.2,30.25,ENE,68,0.0,-999.0,73,0.00,,,0.00,Wunderground v.1.15,2013-09-18 02:55:00,
2013-09-17 23:00:00,66.1,57.2,30.25,ENE,68,0.0,-999.0,73,0.00,,,0.00,Wunderground v.1.15,2013-09-18 03:00:00,
2013-09-17 23:05:00,66.1,57.2,30.25,ENE,68,0.0,-999.0,73,0.00,,,0.00,Wunderground v.1.15,2013-09-18 03:05:00,
2013-09-17 23:10:00,66.1,57.2,30.25,ENE,68,0.0,-999.0,73,0.00,,,0.00,Wunderground v.1.15,2013-09-18 03:10:00,
2013-09-17 23:15:00,65.7,56.8,30.25,NE,45,0.0,-999.0,73,0.00,,,0.00,Wunderground v.1.15,2013-09-18 03:15:00,
2013-09-17 23:20:00,65.7,56.8,30.25,NE,45,0.0,-999.0,73,0.00,,,0.00,Wunderground v.1.15,2013-09-18 03:20:00,
2013-09-17 23:25:00,65.7,56.8,30.25,NE,45,0.0,-999.0,73,0.00,,,0.00,Wunderground v.1.15,2013-09-18 03:25:00,
2013-09-17 23:30:00,65.7,56.8,30.25,NE,45,0.0,-999.0,73,0.00,,,0.00,Wunderground v.1.15,2013-09-18 03:30:00,
2013-09-17 23:35:00,65.7,56.8,30.25,NE,45,0.0,-999.0,73,0.00,,,0.00,Wunderground v.1.15,2013-09-18 03:35:00,
2013-09-17 23:40:00,65.7,56.8,30.25,NE,45,0.0,-999.0,73,0.00,,,0.00,Wunderground v.1.15,2013-09-18 03:40:00,
2013-09-17 23:45:00,65.8,56.1,30.25,ENE,68,0.0,-999.0,71,0.00,,,0.00,Wunderground v.1.15,2013-09-18 03:45:00,
2013-09-17 23:50:00,65.8,56.1,30.25,ENE,68,0.0,-999.0,71,0.00,,,0.00,Wunderground v.1.15,2013-09-18 03:50:00,
2013-09-17 23:55:00,65.8,56.1,30.25,ENE,68,0.0,-999.0,71,0.00,,,0.00,Wunderground v.1.15,2013-09-18 03:55:00,